Location: Dana
(41.8364°N, 106.7042°W)
Time: 13:53:25
(UTC+00:00)

Altair - Pass Details

Date: 10 May 2026
Orbit: 1501 x 1682 km, 47.2° (Epoch: 6 June)

Event Time Altitude Azimuth Distance (km) Brightness Sun altitude
Rises 19:00:59 0° 296° (WNW) 4,939 10.0 65.9°
Reaches altitude 10° 19:04:10 10° 295° (WNW) 3,948 9.7 65.9°
Maximum altitude 19:14:19 77° 212° (SSW) 1,703 9.9 65.8°
Drops below altitude 10° 19:24:11 10° 128° (SE) 3,848 9.9 65.5°
Sets 19:27:15 0° 127° (SE) 4,810 10.2 65.4°
